Regional Weather Roundup
Issued by NWS

Home | Current Version | Previous Version | Graphics & Text | Print | Product List | Glossary On
Versions: 1 2 3 4 5 6 7 8 9 10 11 12 13 14 15 16 17 18 19 20 21 22 23 24 25 26 27 28 29 30 31 32 33 34 35 36 37 38 39 40 41 42 43 44 45 46 47
000
ASUS45 KSLC 202110
RWRUT

UTAH REGIONAL WEATHER ROUNDUP
NATIONAL WEATHER SERVICE SALT LAKE CITY UT
300 PM MDT SAT SEP 20 2014

UTZ001>011-023>025-202200-

NORTHERN UTAH

CITY           SKY/WX    TMP DP  RH WIND       PRES   REMARKS
HILL AFB       SUNNY     82  44  26 N8        30.16F
LOGAN          SUNNY     80  47  31 NE6       30.16F
OGDEN          SUNNY     84  44  24 N7        30.13F
PROVO AIRPORT  SUNNY     81  46  30 NW8       30.12
SALT LAKE CITY MOSUNNY   83  43  24 NW12      30.11F
VERNAL         SUNNY     80  42  25 VRB3      30.19F
WENDOVER       SUNNY     82  43  24 E6        30.14F
HEBER CITY     SUNNY     82  34  17 N3        30.19F
WEST JORDAN    SUNNY     81  46  30 N8        30.15F

$$

UTZ012>022-026-027-202200-

SOUTHERN UTAH

CITY           SKY/WX    TMP DP  RH WIND       PRES   REMARKS
BRYCE CANYON   CLOUDY    74  42  31 SE8       30.28F
CEDAR CITY     PTSUNNY   79  50  36 VRB5      30.12F
MILFORD        SUNNY     88  45  22 N14G24    30.07F
MOAB/CYNLANDS  SUNNY     93  36  13 NE17      30.03F
PRICE          SUNNY     86  37  17 S8        30.17F
ST GEORGE      CLEAR     91  48  22 CALM      29.92F
KANAB            N/A     75  59  57 N3        30.10F

$$

REGIONAL REPORTS     COLORADO/ARIZONA

CITY           SKY/WX    TMP DP  RH WIND       PRES   REMARKS
CRAIG, CO      SUNNY     81  31  16 N6        30.26F
GRAND JUNCTION SUNNY     88  43  20 W7        30.08F
RIFLE          SUNNY     85  38  18 VRB5      30.14F
MONTROSE       SUNNY     85  45  24 N8        30.15F
CORTEZ         SUNNY     87  44  22 SW8       30.14F
PAGE, AZ       SUNNY     92  44  19 N6        30.01F
GRAND CANYON   CLOUDY    75  48  38 NE8       30.20F
KINGMAN        PTSUNNY   90  47  22 S9        29.98F
FLAGSTAFF      MOSUNNY   78  45  30 E7        30.22F

$$

REGIONAL REPORTS    NEVADA/IDAHO/WYOMING

CITY           SKY/WX    TMP DP  RH WIND       PRES   REMARKS
LAS VEGAS, NV  PTSUNNY   93  43  17 S5        29.84F
ELY            MOSUNNY   80  37  21 SW5       30.17F
ELKO           SUNNY     88  33  14 NE12      30.12F
POCATELLO, ID  SUNNY     79  44  28 CALM      30.19F
BURLEY         SUNNY     79  43  27 VRB3      30.14F
EVANSTON, WY   SUNNY     77  26  15 N12       30.32F
ROCK SPRINGS   NOT AVBL

$$



USA.gov is the U.S. government's official web portal to all federal, state and local government web resources and services.